STARLINK-3261, 50193

Orbit data source: Space-Track

STARLINK-3261, 50193 is a payload satellite owned by SpaceX/Seattle (US) in LEO that was launched on Sat, 18 Dec 2021 UTC via an FALCON 9 launch vehicle from the Air Force Western Test Range (AFWTR). Payload-class satellites include a variety of spacecraft equipped with specific instruments for various scientific and technological missions. These include communications satellites like Starlink; space stations such as the ISS; scientific satellites like the Hubble; Earth observation satellites from companies like Planet Labs, Umbra, and HawkEye 360; GPS; miniature CubeSats for education and research; and military/defense satellites.

Loading next visibility...
Identifier
50193, 2021-125AP
Orbit
LEO
Country
Flag of USUS
Related business
Manufacturer
SpaceX/Seattle
Mission
Operational Commercial Communications
Bus & Motor
STARLINK, Unknown motor
Mass
290 kg wet, ~270 kg dry
Launch date (UTC)
2021-12-18 (5 years ago)
Launch vehicle
FALCON 9
Launch site
Air Force Western Test Range (AFWTR)
Object type
Payload
Rocket body
Debris
Shape & HBR
Box + 1 Pan, 10.1 m
Radar Cross Section
13.562 m², Large (>1 m²)

Expand to show TLE details & history
Last TLE update: 5 hours ago

TLE from 5 hours ago
0 STARLINK-3261
1 50193U 21125AP  26170.19080904  .00000087  00000-0  23581-4 0  9994
2 50193  53.1603 143.3574 0001219  95.1053 265.0077 15.08841760252108
Epoch: 2026-06-19T04:34Z
TLE epoch observation values (Epoch: 2026-06-19T04:34:45.901Z)
Latitude
-0.00005°
Longitude
167.24278°
Altitude
540.703 km
Speed
7.593 km/s
True Right ascension
09h 33m 25s
True Declination
0° 00' 00"
Sunlit
Object was in daylight at epoch
Visualization orbit readout
Latitude
Unknown
Longitude
Unknown
Altitude
Unknown
Speed
Unknown
Apparent Right ascension
Unknown
Apparent Declination
Unknown
Sunlit
N/A
Visualization observer readout
Local Sidereal Time
20:17:31
Azimuth
Unknown
Elevation
Unknown
Doppler factor
Unknown
Orbital elements
Apogee altitude
540.835 km
Perigee altitude
539.149 km
Semi-major axis
6,918.129 km
Eccentricity
0.00012
Inclination
53.1603°
RAAN
143.3574°
Arg. of periapsis
95.1053°
True anomaly
264.99378°
Mean anomaly
265.0077°
Eccentric anomaly
265.00074°
Mean motion
3.7719 °/min
Orbital period
95.44 mins
BSTAR
0.000023581
Loading maneuver chart data...
Computing Atmospheric mass density...

Documentation

Showing up to 5 results
|